| time (UTC) | temp F | wind direction | speed MPH | gust MPH | rain 1hr in | rain 24hr in | rain mn in | humidity % | barometer mb |
| 20260504081550 | 45 | 236 | 0.0 | 0.0 | 0.00 | 0.00 | 0.00 | 61 | 1015.4 |
| 20260504044541 | 45 | 233 | 0.0 | 0.0 | 0.00 | 0.00 | 0.00 | 61 | 1015.1 |
| 20260504043039 | 45 | 196 | 0.0 | 0.0 | 0.00 | 0.00 | 0.00 | 62 | 1015.0 |
| 20260504041534 | 45 | 226 | 0.0 | 0.0 | 0.00 | 0.00 | 0.00 | 61 | 1014.9 |
| 20260504040032 | 45 | 240 | 0.0 | 0.0 | 0.00 | 0.00 | 0.00 | 62 | 1014.9 |
| 20260504034535 | 44 | 228 | 0.0 | 0.0 | 0.00 | 0.00 | 0.00 | 63 | 1014.7 |
| 20260504033031 | 43 | 231 | 0.0 | 0.0 | 0.00 | 0.00 | 0.00 | 65 | 1014.7 |
| 20260504031531 | 43 | 213 | 0.0 | 0.0 | 0.00 | 0.00 | 0.00 | 66 | 1014.8 |
| 20260504030038 | 43 | 212 | 0.0 | 0.0 | 0.00 | 0.00 | 0.00 | 66 | 1014.7 |
| 20260504024530 | 43 | 212 | 0.0 | 0.0 | 0.00 | 0.00 | 0.00 | 65 | 1014.8 |
| 20260504023030 | 43 | 209 | 0.0 | 0.0 | 0.00 | 0.00 | 0.00 | 64 | 1014.8 |
| 20260504021533 | 43 | 198 | 0.0 | 0.0 | 0.00 | 0.00 | 0.00 | 64 | 1014.9 |
| 20260504020027 | 44 | 198 | 0.0 | 0.0 | 0.00 | 0.00 | 0.00 | 64 | 1014.9 |
| 20260504014528 | 44 | 205 | 0.0 | 0.0 | 0.00 | 0.00 | 0.00 | 63 | 1014.8 |
| 20260504013027 | 44 | 205 | 0.0 | 0.0 | 0.00 | 0.00 | 0.00 | 62 | 1014.6 |
| 20260504011526 | 45 | 200 | 0.0 | 0.0 | 0.00 | 0.00 | 0.00 | 61 | 1014.5 |
| 20260504010026 | 45 | 201 | 0.0 | 0.0 | 0.00 | 0.00 | 0.00 | 60 | 1014.4 |
| 20260504004526 | 46 | 201 | 0.0 | 0.0 | 0.00 | 0.00 | 0.00 | 60 | 1014.4 |
| 20260504003025 | 47 | 201 | 0.0 | 0.0 | 0.00 | 0.00 | 0.00 | 58 | 1014.3 |
| 20260504001525 | 48 | 268 | 0.0 | 0.0 | 0.00 | 0.00 | 0.00 | 56 | 1014.1 |
| 20260504000023 | 49 | 269 | 0.0 | 0.0 | 0.00 | 0.00 | 0.00 | 54 | 1014.0 |
| 20260503234538 | 51 | 269 | 0.0 | 0.0 | 0.00 | 0.00 | 0.00 | 51 | 1013.9 |
| 20260503233023 | 52 | 276 | 0.0 | 0.0 | 0.00 | 0.00 | 0.00 | 49 | 1013.7 |
| 20260503231526 | 53 | 283 | 0.0 | 0.0 | 0.00 | 0.00 | 0.00 | 46 | 1013.7 |
| 20260503230022 | 52 | 295 | 0.0 | 0.0 | 0.00 | 0.00 | 0.00 | 46 | 1013.7 |
| 20260503224522 | 53 | 271 | 0.0 | 0.0 | 0.00 | 0.00 | 0.00 | 45 | 1013.7 |
| 20260503223021 | 53 | 220 | 0.0 | 0.0 | 0.00 | 0.00 | 0.00 | 46 | 1013.6 |
| 20260503221523 | 53 | 239 | 0.0 | 0.0 | 0.00 | 0.00 | 0.00 | 44 | 1013.6 |
| 20260503220037 | 53 | 278 | 0.0 | 0.0 | 0.00 | 0.00 | 0.00 | 43 | 1013.7 |
| 20260503214518 | 54 | 333 | 0.0 | 0.0 | 0.00 | 0.00 | 0.00 | 41 | 1013.6 |
| 20260503213018 | 54 | 226 | 0.0 | 0.0 | 0.00 | 0.00 | 0.00 | 41 | 1013.3 |
| 20260503211520 | 54 | 308 | 0.0 | 3.0 | 0.00 | 0.00 | 0.00 | 38 | 1013.3 |
| 20260503210017 | 55 | 298 | 0.0 | 1.0 | 0.00 | 0.00 | 0.00 | 37 | 1013.3 |
| 20260503204515 | 54 | 235 | 0.0 | 0.0 | 0.00 | 0.00 | 0.00 | 38 | 1013.1 |
| 20260503203026 | 54 | 285 | 0.0 | 1.0 | 0.00 | 0.00 | 0.00 | 38 | 1013.3 |
| 20260503201518 | 54 | 290 | 0.0 | 5.0 | 0.00 | 0.00 | 0.00 | 39 | 1013.5 |
| 20260503200009 | 53 | 272 | 0.0 | 6.0 | 0.00 | 0.00 | 0.00 | 37 | 1013.5 |
| 20260503194507 | 53 | 269 | 0.0 | 7.0 | 0.00 | 0.00 | 0.00 | 39 | 1013.6 |
| 20260503193006 | 53 | 280 | 0.0 | 7.0 | 0.00 | 0.00 | 0.00 | 38 | 1014.0 |
| 20260503191512 | 52 | 21 | 0.0 | 1.0 | 0.00 | 0.00 | 0.00 | 40 | 1014.1 |
| 20260503190001 | 51 | 231 | 0.0 | 7.0 | 0.00 | 0.00 | 0.00 | 40 | 1014.4 |
| 20260503184611 | 51 | 325 | 2.0 | 7.0 | 0.00 | 0.00 | 0.00 | 39 | 1014.5 |
| 20260503183110 | 51 | 240 | 0.0 | 9.0 | 0.00 | 0.00 | 0.00 | 41 | 1014.6 |
| 20260503181609 | 50 | 286 | 2.0 | 8.0 | 0.00 | 0.00 | 0.00 | 41 | 1014.6 |
| 20260503180057 | 50 | 343 | 0.0 | 0.0 | 0.00 | 0.00 | 0.00 | 41 | 1014.7 |
| 20260503174553 | 49 | 312 | 3.0 | 10.0 | 0.00 | 0.00 | 0.00 | 42 | 1015.0 |
| 20260503173100 | 47 | 298 | 1.0 | 6.0 | 0.00 | 0.00 | 0.00 | 44 | 1014.9 |
| 20260503171552 | 49 | 274 | 2.0 | 7.0 | 0.00 | 0.00 | 0.00 | 43 | 1015.0 |